Regional Weather Roundup
Issued by NWS

Home | Current Version | Previous Version | Graphics & Text | Print | Product List | Glossary On
Versions: 1 2 3 4 5 6 7 8 9 10 11 12 13 14 15 16 17 18 19 20 21 22 23 24 25 26 27 28 29 30 31 32 33 34 35 36 37 38 39 40 41 42 43 44 45 46 47 48 49 50
000
ASUS44 KMEG 202300
RWRTN
TENNESSEE HOURLY STATE WEATHER ROUNDUP
NATIONAL WEATHER SERVICE MEMPHIS TN
500 PM CST FRI JAN 20 2017

TNZ002-004-019-021-049-052-054-088>092-210000-
WEST TENNESSEE

CITY           SKY/WX    TMP DP  RH WIND       PRES   REMARKS
MEMPHIS INTL   MOCLDY    66  56  70 S12       29.68R
NWS MEMPHIS      N/A     66 N/A N/A MISG        N/A
JACKSON        CLEAR     64  54  69 S8        29.70R
DYERSBURG      PTCLDY    63  52  67 S7        29.67S
UNION CITY     CLEAR     59  59 100 CALM      29.66S
PARIS          CLEAR     57  52  82 CALM      29.70R
$$

TNZ008-025-027-028-033-062-065-066-210000-
NORTH MIDDLE TENNESSEE

CITY           SKY/WX    TMP DP  RH WIND       PRES   REMARKS
NASHVILLE      MOCLDY    64  51  62 S9        29.73S
CLARKSVILLE    CLEAR     63  51  65 S10       29.69R
SMYRNA         CLEAR     65  53  65 S5        29.74S
CROSSVILLE     CLEAR     60  48  64 S6        29.79S
$$

TNZ061-075-076-078-094-096-097-210000-
SOUTH MIDDLE TENNESSEE

CITY           SKY/WX    TMP DP  RH WIND       PRES   REMARKS
TULLAHOMA      CLEAR     63  50  63 S8        29.78R
WINCHESTER     PTCLDY    64  52  63 SW6       29.78R
MCMINNVILLE    CLEAR     64  52  63 S3        29.77R
COLUMBIA       CLEAR     64  57  77 S7        29.71S
SHELBYVILLE    CLEAR     64  55  72 S7        29.77R
$$

TNZ017-018-042-046-047-210000-
NORTHEAST TENNESSEE

CITY           SKY/WX    TMP DP  RH WIND       PRES   REMARKS
TRI CITIES     PTCLDY    60  48  64 W5        29.83R
$$

TNZ012-013-036-069-073-074-210000-
CENTRAL EAST TENNESSEE

CITY           SKY/WX    TMP DP  RH WIND       PRES   REMARKS
KNOXVILLE      MOCLDY    63  49  60 SW5       29.78S
OAK RIDGE      CLEAR     64  49  57 S3        29.79S
GATLINBURG     CLEAR     64  48  55 W3        29.79S
$$

TNZ083-085-099-210000-
SOUTHEAST TENNESSEE

CITY           SKY/WX    TMP DP  RH WIND       PRES   REMARKS
CHATTANOOGA    MOCLDY    68  52  56 S5        29.78S
$$

SKY/WX REPORTED AS FAIR MEANS FEW OR NO CLOUDS BELOW
12 THOUSAND FEET.




USA.gov is the U.S. government's official web portal to all federal, state and local government web resources and services.